History for TLPC

Vigie, St. Lucia

Daily Weekly Monthly
Daily Summary for Tuesday, February 21, 2017
  Actual: Average: Record:
Temperature
Mean Temperature: 79 °F / 26 °C - :  
Max Temperature: 85 °F / 29 °C 82 °F / 28 °C 86 °F / 30 °C (1998)
Min Temperature: 73 °F / 23 °C 75 °F / 24 °C 73 °F / 22 °C (2008)
Cooling Degree Days 14    
Growing Degree Days 29 (Base 50)    
Moisture
Dew Point 71 °F / 22 °C    
Average Humidity 72    
Maximum Humidity 94    
Minimum Humidity 52    
Precipitation
Precipitation 0.00 in / 0.0 cm - - ()
Sea Level Pressure
Sea Level Pressure 29.87 in / 1011.21 hPa   
Wind
Wind Speed 5 mph / 9 km/h ()  
Max Wind Speed 13 mph / 20 km/h   
Max Gust Speed 26 mph / 43 km/h   
Visibility 6.5 miles / 10.5 kilometers   
Events     
Averages and records for this station are not official NWS values.
Key: T is trace of precipitation, MM is missing value
Source: Averaged Metar Reports
Seasonal Weather Averages

Graphs

Observations

History Graphs Observations

Obs Go Here...

Features

Weather Apps

WunderRadio

Weather Underground Apps
Check out our wide variety of mobile and setup applications.

Weather Underground Applications

Top of Page

© Copyright 2017
The Weather Company, LLC
Time(AST)TemperatureDew PointHumidity Sea Level Pressure Visibility Wind DirectionWind SpeedGust SpeedPrecipitationEvents Conditions
6:00 AM 73.4 °F / 23.0 °C 69.8 °F / 21.0 °C 88% 29.89 in / 1012 hPa 6.2 miles / 10.0 kilometers Calm Calm - N/A   Scattered Clouds
7:00 AM 75.2 °F / 24.0 °C 69.8 °F / 21.0 °C 83% 29.89 in / 1012 hPa 6.2 miles / 10.0 kilometers Calm Calm - N/A   Scattered Clouds
8:00 AM 78 °F / 26 °C 71 °F / 22 °C 72% 29.91 in / 1013 hPa 22 miles / 35 kilometers South 6.9 mph / 11.1 km/h - -  
8:00 AM 78.8 °F / 26.0 °C 71.6 °F / 22.0 °C 78% 29.89 in / 1012 hPa 6.2 miles / 10.0 kilometers South 6.9 mph / 11.1 km/h - N/A   Partly Cloudy
9:00 AM 82.4 °F / 28.0 °C 69.8 °F / 21.0 °C 66% 29.92 in / 1013 hPa 6.2 miles / 10.0 kilometers South 4.6 mph / 7.4 km/h - N/A   Partly Cloudy
10:00 AM 82.4 °F / 28.0 °C 71.6 °F / 22.0 °C 70% 29.92 in / 1013 hPa 6.2 miles / 10.0 kilometers SW 4.6 mph / 7.4 km/h - N/A   Scattered Clouds
11:00 AM 81 °F / 27 °C 71 °F / 22 °C 66% 29.92 in / 1013 hPa 22 miles / 35 kilometers WNW 3.5 mph / 5.6 km/h - -  
11:00 AM 80.6 °F / 27.0 °C 71.6 °F / 22.0 °C 74% 29.92 in / 1013 hPa 6.2 miles / 10.0 kilometers WNW 3.5 mph / 5.6 km/h - N/A   Scattered Clouds
12:00 PM 86.0 °F / 30.0 °C 71.6 °F / 22.0 °C 62% 29.86 in / 1011 hPa 6.2 miles / 10.0 kilometers WSW 10.4 mph / 16.7 km/h - N/A   Partly Cloudy
1:00 PM 84.2 °F / 29.0 °C 71.6 °F / 22.0 °C 66% 29.86 in / 1011 hPa 6.2 miles / 10.0 kilometers WSW 10.4 mph / 16.7 km/h - N/A   Partly Cloudy
2:00 PM 85 °F / 29 °C 70 °F / 21 °C 52% 29.84 in / 1010 hPa 15 miles / 24 kilometers SW 12.7 mph / 20.4 km/h - -   Partly Cloudy
2:00 PM 84.2 °F / 29.0 °C 69.8 °F / 21.0 °C 62% 29.83 in / 1010 hPa 6.2 miles / 10.0 kilometers SW 12.7 mph / 20.4 km/h 26.5 mph / 42.6 km/h N/A   Mostly Cloudy
4:00 PM 82.4 °F / 28.0 °C 69.8 °F / 21.0 °C 66% 29.80 in / 1009 hPa 6.2 miles / 10.0 kilometers SW 9.2 mph / 14.8 km/h - N/A   Mostly Cloudy
5:00 PM 80 °F / 27 °C 71 °F / 22 °C 67% 29.83 in / 1010 hPa 4 miles / 7 kilometers WSW 10.4 mph / 16.7 km/h - -   Partly Cloudy
5:00 PM 80.6 °F / 27.0 °C 71.6 °F / 22.0 °C 74% 29.80 in / 1009 hPa 4.3 miles / 7.0 kilometers WSW 10.4 mph / 16.7 km/h - N/A   Mostly Cloudy
5:38 PM 75.2 °F / 24.0 °C 73.4 °F / 23.0 °C 94% 29.83 in / 1010 hPa 6.2 miles / 10.0 kilometers NW 8.1 mph / 13.0 km/h - N/A   Mostly Cloudy
6:00 PM 77.0 °F / 25.0 °C 71.6 °F / 22.0 °C 83% 29.83 in / 1010 hPa 6.2 miles / 10.0 kilometers WNW 5.8 mph / 9.3 km/h 17.3 mph / 27.8 km/h N/A   Mostly Cloudy
7:00 PM 78.8 °F / 26.0 °C 71.6 °F / 22.0 °C 78% 29.86 in / 1011 hPa 6.2 miles / 10.0 kilometers West 8.1 mph / 13.0 km/h 25.3 mph / 40.7 km/h N/A   Partly Cloudy
8:00 PM - 80 °F / 26 °C %  in /  hPa 22 miles / 35 kilometers WSW 12.7 mph / 20.4 km/h - -  
8:00 PM 80.6 °F / 27.0 °C 71.6 °F / 22.0 °C 74% 29.86 in / 1011 hPa 6.2 miles / 10.0 kilometers WSW 12.7 mph / 20.4 km/h - N/A   Partly Cloudy